Regional Weather Roundup
Issued by NWS

Home | Current Version | Previous Version | Text Only | Print | Product List | Glossary Off
Versions: 1 2 3 4 5 6 7 8 9 10 11 12 13 14 15 16 17 18 19 20 21 22 23 24 25 26 27 28 29 30 31 32 33 34 35 36 37 38 39 40 41 42 43 44 45 46 47 48 49 50

441
ASUS45 KCYS 190710
RWRWY

WYOMING REGIONAL WEATHER ROUNDUP
NATIONAL WEATHER SERVICE CHEYENNE WY
100 AM MDT SAT AUG 19 2017

NOTE:  "FAIR" INDICATES FEW OR NO CLOUDS BELOW 12,000 FEET
WITH NO SIGNIFICANT WEATHER AND/OR OBSTRUCTIONS TO VISIBILITY.

WYZ001-190800-
YELLOWSTONE NATIONAL PARK

CITY           SKY/WX    TMP DP  RH WIND       PRES   REMARKS
LK YELLOWSTONE   N/A     41  35  79 CALM      30.31F
W YELLOWSTONE  NOT AVBL

$$
WYZ002>013-054>058-071-098>099-190800-
NORTHERN WYOMING

CITY           SKY/WX    TMP DP  RH WIND       PRES   REMARKS
JACKSON        FAIR      44  32  62 NE3       30.23R
CODY           NOT AVBL
GREYBULL       FAIR      67  39  35 SE5       29.95S
WORLAND        FAIR      61  34  36 CALM      29.97S
SHERIDAN       FAIR      55  44  66 S6        29.95F
BUFFALO        FAIR      67  34  29 W10       30.02F
GILLETTE       FAIR      68  42  38 S17       29.98F
HULETT         FAIR      64  37  36 SW5       29.99S
NEWCASTLE      FAIR      70  36  28 E16G23    30.02F

$$
WYZ014>020-022>026-101>103-190800-
CENTRAL WYOMING

CITY           SKY/WX    TMP DP  RH WIND       PRES   REMARKS
BIG PINEY      FAIR      46  33  60 NW8       30.27S
PINEDALE       FAIR      41  32  70 NW5       30.27S
DUBOIS         FAIR      50  32  50 N5        30.25S
LANDER           N/A    N/A N/A N/A MISG      30.09F
RIVERTON       FAIR      65  31  28 W13       30.09S
CASPER         FAIR      57  38  48 NW5       30.05F
DOUGLAS        FAIR      60  44  55 SE6       30.04F

$$
WYZ021-027>030-104>119-190800-
SOUTHERN WYOMING

CITY           SKY/WX    TMP DP  RH WIND       PRES   REMARKS
EVANSTON       FAIR      59  30  33 SE6       30.29S
KEMMERER         N/A     52  32  46 CALM      30.30S
FORT BRIDGER   FAIR      64  27  25 SW10      30.30S
ROCK SPRINGS   FAIR      61  28  28 SW8       30.24S
RAWLINS        FAIR      60  31  33 W5        30.22F
SARATOGA       FAIR      54  36  50 SE7       30.25S
LARAMIE        FAIR      51  37  58 S12       30.24F
CHEYENNE       FAIR      62  42  47 S7        30.17F
TORRINGTON     FAIR      65  47  52 SE8       30.01F
PINE BLUFFS    FAIR      59  50  72 S13       30.12F

$$




USA.gov is the U.S. government's official web portal to all federal, state and local government web resources and services.